Weather History for Detroit, MI

Change the Weather History Date:

Wednesday, November 27, 2013

  Actual Average Record
Temperature  
Mean Temperature 26 °F -  
Max Temperature 30 °F 44 °F 67 °F (1990)
Min Temperature 21 °F 34 °F 13 °F (1950)
Degree Days  
Heating Degree Days 40    
Moisture  
Dew Point 13 °F    
Average Humidity 60    
Maximum Humidity 80    
Minimum Humidity 43    
Precipitation  
Precipitation 0.00 in - - ()
Sea Level Pressure  
Sea Level Pressure 30.00 in    
Wind  
Wind Speed 13 mph (NNW)    
Max Wind Speed 20 mph    
Max Gust Speed 26 mph    
Visibility 10 miles    
Events      
Averages and records for this station are not official NWS values.
T = Trace of Precipitation, MM = Missing Value Source: NWS Daily Summary

Daily Weather History Graph

Daily Weather History Graph

Search for Another Location

Airport:

Trip Planner

Search our weather history database for the weather conditions in past years. The results will help you decide how hot, cold, wet, or windy it might be!

Date:

Astronomy

Nov. 27, 2013 Rise Set
Actual Time 7:37 AM EST 5:01 PM EST
Civil Twilight 7:06 AM EST 5:32 PM EST
Nautical Twilight 6:31 AM EST 6:07 PM EST
Astronomical Twilight 5:57 AM EST 6:41 PM EST
Moon 1:31 AM EST (11/27) 1:44 PM EST (11/27)
Length of Visible Light 10h 26m
Length of Day
9h 24m
Waning Crescent, 32% of the Moon is Illuminated
Nov 27
Waning Crescent
Dec 2
New
Dec 9
First Quarter
Dec 17
Full
Dec 25
Last Quarter

Hourly Weather History & Observations

Time (EST) Temp. Windchill Dew Point Humidity Pressure Visibility Wind Dir Wind Speed Gust Speed Precip Events Conditions
12:53 AM 30.9 °F 21.7 °F 24.1 °F 76% 29.91 in 10.0 mi NW 11.5 mph 20.7 mph N/A   Overcast
1:08 AM 30.2 °F 21.3 °F 24.8 °F 80% 29.89 in 10.0 mi NNW 10.4 mph 17.3 mph N/A   Overcast
1:53 AM 30.0 °F 20.5 °F 24.1 °F 79% 29.90 in 10.0 mi NNW 11.5 mph 20.7 mph N/A   Overcast
2:08 AM 30.2 °F 18.9 °F 23.0 °F 75% 29.88 in 10.0 mi North 16.1 mph 21.9 mph N/A   Overcast
2:53 AM 28.9 °F 17.7 °F 21.0 °F 72% 29.92 in 10.0 mi North 15.0 mph 23.0 mph N/A   Overcast
3:53 AM 28.0 °F 15.7 °F 19.0 °F 69% 29.92 in 10.0 mi NNW 17.3 mph 25.3 mph N/A   Overcast
4:37 AM 26.6 °F 14.7 °F 17.6 °F 69% 29.90 in 10.0 mi North 15.0 mph 26.5 mph N/A   Overcast
4:53 AM 26.1 °F 15.0 °F 17.1 °F 69% 29.93 in 10.0 mi NNW 12.7 mph 23.0 mph N/A   Overcast
5:53 AM 25.0 °F 12.6 °F 12.9 °F 60% 29.94 in 10.0 mi NNW 15.0 mph 23.0 mph N/A   Overcast
6:53 AM 24.1 °F 12.5 °F 12.0 °F 60% 29.96 in 10.0 mi NW 12.7 mph 23.0 mph N/A   Overcast
7:53 AM 24.1 °F 12.5 °F 10.9 °F 57% 29.98 in 10.0 mi NNW 12.7 mph 19.6 mph N/A   Overcast
8:53 AM 21.9 °F 8.7 °F 12.0 °F 66% 29.99 in 10.0 mi NW 15.0 mph 21.9 mph N/A   Scattered Clouds
9:53 AM 24.1 °F 10.6 °F 10.9 °F 57% 29.99 in 10.0 mi NW 17.3 mph 25.3 mph N/A   Clear
10:53 AM 25.0 °F 13.1 °F 9.0 °F 51% 29.97 in 10.0 mi NW 13.8 mph 25.3 mph N/A   Clear
11:53 AM 26.1 °F 14.0 °F 10.0 °F 51% 29.96 in 10.0 mi NNW 15.0 mph 24.2 mph N/A   Mostly Cloudy
12:53 PM 26.1 °F 13.6 °F 9.0 °F 49% 29.95 in 10.0 mi NW 16.1 mph 26.5 mph N/A   Mostly Cloudy
1:53 PM 28.0 °F 16.1 °F 8.1 °F 43% 29.95 in 10.0 mi NW 16.1 mph 23.0 mph N/A   Mostly Cloudy
2:53 PM 26.1 °F 14.0 °F 9.0 °F 49% 29.98 in 10.0 mi NNW 15.0 mph 21.9 mph N/A   Overcast
3:53 PM 25.0 °F 10.9 °F 7.0 °F 46% 30.01 in 10.0 mi NNW 19.6 mph 26.5 mph N/A   Overcast
4:53 PM 24.1 °F 13.1 °F 8.1 °F 51% 30.08 in 10.0 mi NNW 11.5 mph 21.9 mph N/A   Mostly Cloudy
5:53 PM 23.0 °F 14.7 °F 8.1 °F 53% 30.09 in 10.0 mi NNW 6.9 mph - N/A   Mostly Cloudy
6:53 PM 23.0 °F 15.8 °F 8.1 °F 53% 30.11 in 10.0 mi NW 5.8 mph - N/A   Clear
7:53 PM 21.9 °F 12.5 °F 8.1 °F 55% 30.13 in 10.0 mi NNW 8.1 mph - N/A   Clear
8:53 PM 21.9 °F 12.5 °F 7.0 °F 53% 30.14 in 10.0 mi NW 8.1 mph - N/A   Clear
9:53 PM 21.0 °F 14.6 °F 7.0 °F 55% 30.16 in 10.0 mi NW 4.6 mph - N/A   Clear
10:53 PM 21.0 °F 13.4 °F 7.0 °F 55% 30.17 in 10.0 mi WNW 5.8 mph - N/A   Clear
11:53 PM 21.0 °F 12.4 °F 7.0 °F 55% 30.19 in 10.0 mi WNW 6.9 mph - N/A   Clear